This is the latest recevied weather packets stored in our database for station/object KN4MGS. If no packets are shown the sender has not sent any weather packets the latest 10 day(s).
| Time | Temp. | Humidity | Pressure | Rain* | Wind** | Luminosity | Snow |
|---|---|---|---|---|---|---|---|
| 1777936345 | 22.78° C | 48% | 1017.1 hPa | 0 mm | - | 60 W/m² | - |
| 1777936041 | 23.33° C | 43% | 1017.1 hPa | 0 mm | - | 67 W/m² | - |
| 1777935740 | 23.89° C | 42% | 1017 hPa | 0 mm | - | 75 W/m² | - |
| 1777935438 | 23.89° C | 40% | 1017 hPa | 0 mm | - | 78 W/m² | - |
| 1777935134 | 23.89° C | 39% | 1016.9 hPa | 0 mm | - | 72 W/m² | - |
| 1777934831 | 23.89° C | 37% | 1017.1 hPa | 0 mm | - | 69 W/m² | - |
| 1777934529 | 23.89° C | 38% | 1017.2 hPa | 0 mm | - | 69 W/m² | - |
| 1777934225 | 24.44° C | 37% | 1017.2 hPa | 0 mm | - | 77 W/m² | - |
| 1777933920 | 25° C | 36% | 1017.1 hPa | 0 mm | - | 94 W/m² | - |
| 1777933618 | 25.56° C | 35% | 1017.2 hPa | 0 mm | - | 147 W/m² | - |
| 1777933314 | 25° C | 35% | 1017.1 hPa | 0 mm | - | 160 W/m² | - |
| 1777933012 | 25° C | 36% | 1016.9 hPa | 0 mm | - | 109 W/m² | - |
| 1777932709 | 25.56° C | 36% | 1017.1 hPa | 0 mm | - | 138 W/m² | - |
| 1777932405 | 25.56° C | 36% | 1017 hPa | 0 mm | - | 173 W/m² | - |
| 1777932103 | 25.56° C | 37% | 1017.3 hPa | 0 mm | - | 246 W/m² | - |
| 1777931799 | 25.56° C | 35% | 1017.1 hPa | 0 mm | - | 155 W/m² | - |
| 1777931496 | 26.11° C | 34% | 1017.1 hPa | 0 mm | - | 200 W/m² | - |
| 1777931192 | 25.56° C | 34% | 1017.1 hPa | 0 mm | - | 238 W/m² | - |
| 1777930889 | 26.11° C | 33% | 1017.3 hPa | 0 mm | - | 224 W/m² | - |
| 1777930585 | 26.11° C | 34% | 1017.2 hPa | 0 mm | - | 339 W/m² | - |
| 1777930282 | 26.11° C | 32% | 1017.1 hPa | 0 mm | - | 301 W/m² | - |
| 1777929978 | 26.67° C | 31% | 1017.2 hPa | 0 mm | - | 376 W/m² | - |
| 1777929675 | 26.67° C | 33% | 1017.1 hPa | 0 mm | - | 347 W/m² | - |
| 1777929373 | 26.67° C | 34% | 1017 hPa | 0 mm | - | 385 W/m² | - |
| 1777929069 | 27.22° C | 32% | 1017.1 hPa | 0 mm | - | 408 W/m² | - |
* Rain latest hour (hover to see other rain measurements)
** Current wind speed in m/s (hover to see current wind gust speed)